MQT87 EDDH-EDDC

Flight info

Callsign MQT87
Flight time N/A
Altitude 23000
Route RAMAR6G RAMAR Z998 NUSGU/N0434F270 Z998 OSKAN OSKAN4B
Aircraft A320/M-SDE3FGHIRWY/LB1

Departure

Time 2026-05-05 08:08
Airport Hamburg Helmut Schmidt Airport (EDDH)

Arrival

Time N/A
Airport Dresden Airport (EDDC)
Time Latitude Longitude Altitude Speed Heading
2026-05-05 07:36 53.63197 10.00364 49 ft 0 kts 85°
2026-05-05 08:02 53.63196 10.00337 49 ft 4 kts 95°
2026-05-05 08:02 53.63202 10.00294 49 ft 4 kts 117°
2026-05-05 08:02 53.63217 10.00258 49 ft 4 kts 145°
2026-05-05 08:02 53.63234 10.00244 49 ft 0 kts 175°
2026-05-05 08:05 53.63196 10.00249 49 ft 10 kts 175°
2026-05-05 08:05 53.63110 10.00260 48 ft 14 kts 175°
2026-05-05 08:06 53.63011 10.00202 46 ft 17 kts 211°
2026-05-05 08:06 53.62903 10.00083 45 ft 20 kts 216°
2026-05-05 08:06 53.62838 9.99977 45 ft 5 kts 250°
2026-05-05 08:06 53.62831 9.99927 46 ft 3 kts 257°
2026-05-05 08:07 53.62829 9.99913 46 ft 0 kts 254°
2026-05-05 08:07 53.62823 9.99880 46 ft 5 kts 254°
2026-05-05 08:07 53.62818 9.99802 46 ft 12 kts 289°
2026-05-05 08:07 53.62890 9.99715 47 ft 17 kts 330°
2026-05-05 08:08 53.63212 9.99431 49 ft 89 kts 333°
2026-05-05 08:08 53.63946 9.98817 50 ft 144 kts 333°
2026-05-05 08:08 53.64935 9.97986 348 ft 164 kts 335°
2026-05-05 08:08 53.65984 9.97133 940 ft 168 kts 334°
2026-05-05 08:09 53.67022 9.96237 1689 ft 168 kts 334°
2026-05-05 08:09 53.68096 9.95300 2144 ft 183 kts 331°
2026-05-05 08:09 53.69376 9.94673 2411 ft 208 kts 356°
2026-05-05 08:09 53.70868 9.94665 2906 ft 219 kts 359°
2026-05-05 08:10 53.72375 9.94918 3725 ft 220 kts 17°
2026-05-05 08:10 53.73724 9.96194 4347 ft 233 kts 43°
2026-05-05 08:10 53.74609 9.98633 4725 ft 260 kts 76°
2026-05-05 08:10 53.74508 10.01741 5260 ft 275 kts 114°
2026-05-05 08:11 53.73622 10.04631 6036 ft 280 kts 122°
2026-05-05 08:11 53.72640 10.07502 6869 ft 284 kts 123°
2026-05-05 08:11 53.71625 10.10409 7676 ft 290 kts 123°
2026-05-05 08:11 53.70595 10.13364 8491 ft 294 kts 123°
2026-05-05 08:12 53.69552 10.16374 9282 ft 300 kts 123°
2026-05-05 08:12 53.68500 10.19427 10076 ft 304 kts 123°
2026-05-05 08:12 53.67408 10.22605 10463 ft 324 kts 123°
2026-05-05 08:12 53.66236 10.26015 10685 ft 348 kts 123°
2026-05-05 08:13 53.64974 10.29690 11039 ft 364 kts 123°
2026-05-05 08:13 53.63709 10.33369 11671 ft 370 kts 123°
2026-05-05 08:13 53.62393 10.37192 12377 ft 374 kts 123°
2026-05-05 08:13 53.61082 10.41006 13079 ft 378 kts 123°
2026-05-05 08:14 53.59757 10.44856 13763 ft 382 kts 123°
2026-05-05 08:14 53.58421 10.48735 14436 ft 385 kts 123°
2026-05-05 08:14 53.57069 10.52655 15078 ft 389 kts 123°
2026-05-05 08:14 53.55704 10.56601 15706 ft 392 kts 123°
2026-05-05 08:15 53.54323 10.60576 16314 ft 395 kts 123°
2026-05-05 08:15 53.52929 10.64576 16894 ft 399 kts 123°
2026-05-05 08:15 53.51521 10.68615 17471 ft 402 kts 123°
2026-05-05 08:15 53.50104 10.72672 18008 ft 405 kts 124°
2026-05-05 08:16 53.48673 10.76761 18550 ft 407 kts 124°
2026-05-05 08:16 53.47231 10.80875 19062 ft 410 kts 124°
2026-05-05 08:16 53.45777 10.85020 19582 ft 413 kts 124°
2026-05-05 08:16 53.44315 10.89188 20087 ft 416 kts 124°
2026-05-05 08:17 53.42842 10.93382 20582 ft 419 kts 124°
2026-05-05 08:17 53.41357 10.97600 21042 ft 422 kts 124°
2026-05-05 08:17 53.39857 11.01843 21497 ft 424 kts 124°
2026-05-05 08:17 53.38346 11.06108 21946 ft 427 kts 125°
2026-05-05 08:18 53.36825 11.10394 22394 ft 430 kts 125°
2026-05-05 08:18 53.35293 11.14709 22793 ft 433 kts 125°
2026-05-05 08:18 53.33751 11.19044 22923 ft 435 kts 125°
2026-05-05 08:18 53.32178 11.23448 22946 ft 445 kts 125°
2026-05-05 08:19 53.30579 11.27908 22943 ft 449 kts 125°
2026-05-05 08:19 53.28973 11.32393 22933 ft 450 kts 125°
2026-05-05 08:19 53.27906 11.35353 22933 ft 449 kts 127°
2026-05-05 08:19 53.26063 11.39521 22934 ft 444 kts 135°
2026-05-05 08:20 53.23896 11.43146 22944 ft 440 kts 142°
2026-05-05 08:20 53.21645 11.46595 22943 ft 440 kts 142°
2026-05-05 08:20 53.19391 11.50043 22943 ft 440 kts 142°
2026-05-05 08:20 53.17137 11.53482 22932 ft 440 kts 142°
2026-05-05 08:21 53.14879 11.56927 22934 ft 439 kts 142°
2026-05-05 08:21 53.12623 11.60372 22935 ft 439 kts 142°
2026-05-05 08:21 53.10374 11.63809 22935 ft 439 kts 142°
2026-05-05 08:21 53.08125 11.67247 22935 ft 439 kts 142°
2026-05-05 08:22 53.05874 11.70677 22934 ft 439 kts 142°
2026-05-05 08:22 53.03623 11.74097 22931 ft 439 kts 142°
2026-05-05 08:22 53.01371 11.77517 22929 ft 439 kts 142°
2026-05-05 08:22 52.99161 11.81019 22928 ft 441 kts 137°
2026-05-05 08:23 52.97222 11.84999 22928 ft 445 kts 131°
2026-05-05 08:23 52.95359 11.89094 22930 ft 445 kts 131°
2026-05-05 08:23 52.93490 11.93193 22931 ft 445 kts 131°
2026-05-05 08:23 52.91620 11.97280 22930 ft 445 kts 131°
2026-05-05 08:24 52.89744 12.01363 22930 ft 445 kts 131°
2026-05-05 08:24 52.87866 12.05438 22926 ft 445 kts 131°
2026-05-05 08:24 52.85985 12.09518 22924 ft 446 kts 131°
2026-05-05 08:24 52.84108 12.13597 22923 ft 446 kts 131°
2026-05-05 08:25 52.82236 12.17667 22920 ft 446 kts 131°
2026-05-05 08:25 52.80353 12.21759 22919 ft 446 kts 131°
2026-05-05 08:25 52.78474 12.25838 22921 ft 446 kts 131°
2026-05-05 08:25 52.76591 12.29916 22923 ft 446 kts 131°
2026-05-05 08:26 52.74705 12.33986 22925 ft 446 kts 131°
2026-05-05 08:26 52.72813 12.38050 22927 ft 446 kts 131°
2026-05-05 08:26 52.70760 12.41843 22926 ft 441 kts 140°
2026-05-05 08:26 52.68396 12.45019 22924 ft 436 kts 150°
2026-05-05 08:27 52.65826 12.47627 22923 ft 434 kts 153°
2026-05-05 08:27 52.63231 12.50177 22921 ft 434 kts 153°
2026-05-05 08:27 52.60639 12.52727 22922 ft 435 kts 153°
2026-05-05 08:27 52.58047 12.55280 22921 ft 435 kts 153°
2026-05-05 08:28 52.55452 12.57839 22922 ft 435 kts 153°
2026-05-05 08:28 52.52824 12.60430 22925 ft 434 kts 153°
2026-05-05 08:28 52.50269 12.62944 22924 ft 434 kts 153°
2026-05-05 08:28 52.47672 12.65491 22924 ft 434 kts 153°
2026-05-05 08:29 52.45082 12.68024 22921 ft 434 kts 153°
2026-05-05 08:29 52.42488 12.70555 22919 ft 434 kts 153°
2026-05-05 08:29 52.39888 12.73088 22905 ft 434 kts 153°
2026-05-05 08:30 52.34693 12.78147 22911 ft 435 kts 153°
2026-05-05 08:30 52.32061 12.80704 22897 ft 434 kts 153°
2026-05-05 08:30 52.29462 12.83224 22899 ft 434 kts 153°
2026-05-05 08:30 52.26862 12.85744 22901 ft 435 kts 153°
2026-05-05 08:31 52.24265 12.88262 22907 ft 435 kts 153°
2026-05-05 08:31 52.21672 12.90781 22767 ft 431 kts 153°
2026-05-05 08:31 52.19115 12.93271 22515 ft 426 kts 153°
2026-05-05 08:31 52.16576 12.95737 22267 ft 424 kts 153°
2026-05-05 08:32 52.14050 12.98185 22016 ft 422 kts 153°
2026-05-05 08:32 52.11534 13.00620 21765 ft 420 kts 153°
2026-05-05 08:32 52.09028 13.03038 21513 ft 418 kts 153°
2026-05-05 08:32 52.06530 13.05446 21263 ft 416 kts 153°
2026-05-05 08:33 52.04042 13.07841 21014 ft 415 kts 153°
2026-05-05 08:33 52.01561 13.10233 20759 ft 414 kts 153°
2026-05-05 08:33 51.99090 13.12613 20513 ft 413 kts 153°
2026-05-05 08:33 51.96630 13.14978 20263 ft 410 kts 152°
2026-05-05 08:34 51.94179 13.17332 20010 ft 408 kts 152°
2026-05-05 08:34 51.91741 13.19669 19759 ft 407 kts 152°
2026-05-05 08:34 51.89309 13.21999 19511 ft 405 kts 152°
2026-05-05 08:34 51.86886 13.24314 19262 ft 404 kts 152°
2026-05-05 08:35 51.84471 13.26617 19010 ft 402 kts 152°
2026-05-05 08:35 51.82064 13.28905 18761 ft 400 kts 152°
2026-05-05 08:35 51.79670 13.31176 18509 ft 399 kts 152°
2026-05-05 08:35 51.77282 13.33433 18256 ft 396 kts 152°
2026-05-05 08:36 51.74928 13.35658 17826 ft 389 kts 152°
2026-05-05 08:36 51.72607 13.37854 17328 ft 385 kts 152°
2026-05-05 08:36 51.70308 13.40031 16832 ft 381 kts 152°
2026-05-05 08:36 51.68032 13.42186 16321 ft 378 kts 152°
2026-05-05 08:37 51.65766 13.44329 15813 ft 376 kts 152°
2026-05-05 08:37 51.63521 13.46444 15287 ft 374 kts 152°
2026-05-05 08:37 51.61282 13.48545 14764 ft 372 kts 153°
2026-05-05 08:37 51.59052 13.50634 14218 ft 371 kts 152°
2026-05-05 08:38 51.56831 13.52718 13670 ft 370 kts 152°
2026-05-05 08:38 51.54614 13.54793 13105 ft 368 kts 152°
2026-05-05 08:38 51.52404 13.56859 12545 ft 367 kts 152°
2026-05-05 08:38 51.50204 13.58912 11955 ft 365 kts 152°
2026-05-05 08:39 51.48151 13.61303 11369 ft 366 kts 140°
2026-05-05 08:39 51.46496 13.64416 10778 ft 369 kts 125°
2026-05-05 08:39 51.45367 13.68052 10566 ft 359 kts 111°
2026-05-05 08:39 51.44714 13.71829 10441 ft 346 kts 105°
2026-05-05 08:40 51.44140 13.75497 10290 ft 332 kts 106°
2026-05-05 08:40 51.43584 13.79011 10161 ft 316 kts 106°
2026-05-05 08:40 51.43059 13.82347 9738 ft 305 kts 106°
2026-05-05 08:40 51.42551 13.85595 9511 ft 299 kts 106°